Regional Weather Roundup
Issued by NWS

Home | Current Version | Previous Version | Graphics & Text | Print | Product List | Glossary On
Versions: 1 2 3 4 5 6 7 8 9 10 11 12 13 14 15 16 17 18 19 20 21 22 23 24 25 26 27 28 29 30 31 32 33 34 35 36 37 38 39 40 41 42 43 44 45 46 47 48 49 50
000
ASUS43 KOAX 251010
RWRNE

WEATHER ROUNDUP FOR NEBRASKA
NATIONAL WEATHER SERVICE OMAHA NE
500 AM CDT MON SEP 25 2017

NOTES: SATELLITE DATA IS BEING USED TO AUGMENT CLOUD COVER ABOVE
       12000 FEET.
       "FAIR" INDICATES FEW OR NO CLOUDS BELOW 12,000 FEET WITH NO
       SIGNIFICANT WEATHER AND/OR OBSTRUCTIONS TO VISIBILITY.


NEZ001>004-019>022-054>056-251100-
NEBRASKA PANHANDLE

CITY           SKY/WX    TMP DP  RH WIND       PRES   REMARKS
SCOTTSBLUFF    CLEAR     42  39  89 E3        30.11R
ALLIANCE       MOCLDY    43  41  93 NE8       30.10S
CHADRON        CLOUDY    44  42  93 NE8       30.11F
GORDON         CLOUDY    44  42  94 N8        30.11F
KIMBALL        CLOUDY    42  42 100 NE9       30.10R FOG
SIDNEY         CLOUDY    44  43  96 NE10      30.08F
$$

NEZ057>060-069>072-079>082-251100-
SOUTHWEST NEBRASKA

CITY           SKY/WX    TMP DP  RH WIND       PRES   REMARKS
NORTH PLATTE   LGT RAIN  50  48  93 NE7       30.03R
IMPERIAL       CLOUDY    49  46  90 N12       30.04R
LEXINGTON      LGT RAIN  52  50  93 N9        30.01R
MCCOOK         CLOUDY    51  51 100 N14       29.99R
OGALLALA       CLOUDY    50  47  90 N12       30.07R
$$

NEZ005>010-023>029-035>040-094-251100-
NORTH CENTRAL NEBRASKA

CITY           SKY/WX    TMP DP  RH WIND       PRES   REMARKS
VALENTINE      LGT RAIN  48  46  93 NE10      30.09R
AINSWORTH      RAIN      47  47 100 N12       30.06S
BROKEN BOW     RAIN      51  50  96 N13       29.99F
O`NEILL        CLOUDY    50  50 100 N10G16    30.04S
ORD            LGT RAIN  50  48  93 N14       29.95F
THEDFORD       RAIN      48  47  98 N9        30.05F
$$

NEZ041-046>049-061>064-073>077-083>087-251100-
SOUTH CENTRAL NEBRASKA

CITY           SKY/WX    TMP DP  RH WIND       PRES   REMARKS
GRAND ISLAND   RAIN      53  53 100 NE10      29.96F FOG
AURORA         LGT RAIN  53  53  98 NE13      29.95R
HASTINGS       LGT RAIN  54  52  93 N12       29.95R FOG
HEBRON         CLOUDY    59  58  96 NE10G16   29.93F
HOLDREGE       CLOUDY    52  51  95 N8        29.96R
KEARNEY        CLOUDY    52  51  97 NE10      29.96R
YORK           RAIN      54  54 100 N9        29.96F
$$

NEZ011>018-030>034-042>045-251100-
NORTHEAST NEBRASKA

CITY           SKY/WX    TMP DP  RH WIND       PRES   REMARKS
NORFOLK        LGT RAIN  53  52  96 N9        29.97F
ALBION         LGT RAIN  53  51  95 CALM      29.99R
BLAIR          CLOUDY    61  61  98 NE14      29.91F
COLUMBUS       LGT RAIN  55  53  93 NE8       29.97S
FREMONT        CLOUDY    57  56  98 N5        29.94S
TEKAMAH        LGT RAIN  57  56  96 N10       29.94S FOG
WAYNE          HVY RAIN  54  51  91 NW8       30.00R
$$

NEZ050>053-065>068-078-088>093-251100-
SOUTHEAST NEBRASKA

CITY           SKY/WX    TMP DP  RH WIND       PRES   REMARKS
LINCOLN        CLOUDY    60  58  92 N10       29.95R
OMAHA EPPLEY   MOCLDY    62  58  86 N8        29.95R
BEATRICE       MOCLDY    64  64  97 N9        29.92R
FALLS CITY     CLEAR     66  64  93 SE5       29.90S
NEBRASKA CITY  CLEAR     64  64 100 N5        29.93R
PLATTSMOUTH    CLOUDY    64  64 100 N3        29.94R FOG
$$

NEZ044-045-051>053-067-251100-
OMAHA AREA

CITY           SKY/WX    TMP DP  RH WIND       PRES   REMARKS
OMAHA EPPLEY   MOCLDY    62  58  86 N8        29.95R
BLAIR          CLOUDY    61  61  98 NE14      29.91F
FREMONT        CLOUDY    57  56  98 N5        29.94S
MILLARD        MOCLDY    63  62  95 CALM      29.92F
OFFUTT AFB     CLOUDY    65  62  93 N9        29.93R
PLATTSMOUTH    CLOUDY    64  64 100 N3        29.94R FOG
WAHOO          CLOUDY    58  58  97 N9        29.94R
$$




USA.gov is the U.S. government's official web portal to all federal, state and local government web resources and services.